Weather History for KMIW - October, 2013

Change the Weather History Date:

Wednesday, October 9, 2013

  Actual Average Record
Temperature  
Mean Temperature 61 °F 53 °F  
Max Temperature 75 °F 65 °F 86 °F (2010)
Min Temperature 47 °F 41 °F 19 °F (2000)
Degree Days  
Heating Degree Days 4 13  
Month to date heating degree days 39 102  
Since 1 July heating degree days 139 262  
Cooling Degree Days 0 1  
Month to date cooling degree days 16 9  
Year to date cooling degree days 872 727  
Growing Degree Days 10 (Base 50)    
Moisture  
Dew Point 46 °F    
Average Humidity 63    
Maximum Humidity 93    
Minimum Humidity 33    
Precipitation  
Precipitation 0.00 in 0.08 in 0.34 in (2001)
Month to date precipitation 1.19 0.61  
Sea Level Pressure  
Sea Level Pressure 30.08 in    
Wind  
Wind Speed 10 mph (SSE)    
Max Wind Speed 17 mph    
Max Gust Speed 21 mph    
Visibility 10 miles    
Events      
T = Trace of Precipitation, MM = Missing Value Source: NWS Daily Summary

Daily Weather History Graph

Daily Weather History Graph

Search for Another Location

Airport or City:

Trip Planner

Search our weather history database for the weather conditions in past years. The results will help you decide how hot, cold, wet, or windy it might be!

Date:

Astronomy

Oct. 09, 2013 Rise Set
Actual Time 7:17 AM CDT 6:39 PM CDT
Civil Twilight 6:49 AM CDT 7:07 PM CDT
Nautical Twilight 6:17 AM CDT 7:39 PM CDT
Astronomical Twilight 5:44 AM CDT 8:11 PM CDT
Moon 12:17 PM CDT (10/9) 10:10 PM CDT (10/9)
Length of Visible Light 12h 17m
Length of Day
11h 21m
Waxing Crescent, 25% of the Moon is Illuminated
Oct 9
Waxing Crescent
Oct 11
First Quarter
Oct 18
Full
Oct 26
Last Quarter
Nov 3
New

Hourly Weather History & Observations

Time (CDT) Temp. Dew Point Humidity Pressure Visibility Wind Dir Wind Speed Gust Speed Precip Events Conditions
12:53 AM 59.0 °F 46.9 °F 64% 30.04 in 10.0 mi South 9.2 mph - N/A   Clear
1:53 AM 55.0 °F 46.9 °F 74% 30.05 in 10.0 mi SSE 5.8 mph - N/A   Clear
2:53 AM 52.0 °F 46.0 °F 80% 30.07 in 10.0 mi SSE 6.9 mph - N/A   Clear
3:53 AM 54.0 °F 46.9 °F 77% 30.07 in 10.0 mi SSE 9.2 mph - N/A   Clear
4:53 AM 51.1 °F 46.9 °F 86% 30.08 in 10.0 mi SSE 6.9 mph - N/A   Clear
5:53 AM 50.0 °F 46.0 °F 86% 30.09 in 10.0 mi SE 6.9 mph - N/A   Clear
6:53 AM 48.0 °F 46.0 °F 93% 30.09 in 10.0 mi SE 5.8 mph - N/A   Clear
7:53 AM 50.0 °F 46.9 °F 89% 30.10 in 10.0 mi SE 8.1 mph - N/A   Clear
8:53 AM 54.0 °F 48.0 °F 80% 30.11 in 10.0 mi SSE 9.2 mph - N/A   Clear
9:53 AM 61.0 °F 50.0 °F 67% 30.12 in 10.0 mi South 10.4 mph - N/A   Clear
10:53 AM 66.9 °F 48.9 °F 52% 30.12 in 10.0 mi South 12.7 mph - N/A   Clear
11:53 AM 68.0 °F 48.0 °F 49% 30.11 in 10.0 mi South 13.8 mph - N/A   Clear
12:53 PM 71.1 °F 46.9 °F 42% 30.11 in 10.0 mi South 16.1 mph - N/A   Clear
1:53 PM 72.0 °F 44.1 °F 37% 30.09 in 10.0 mi SSE 13.8 mph - N/A   Clear
2:53 PM 73.9 °F 44.1 °F 34% 30.06 in 10.0 mi SSE 13.8 mph - N/A   Clear
3:53 PM 73.9 °F 42.1 °F 32% 30.05 in 10.0 mi SE 16.1 mph 20.7 mph N/A   Clear
4:53 PM 73.9 °F 43.0 °F 33% 30.04 in 10.0 mi SSE 12.7 mph - N/A   Clear
5:53 PM 71.1 °F 44.1 °F 38% 30.05 in 10.0 mi South 8.1 mph - N/A   Clear
6:53 PM 64.9 °F 45.0 °F 48% 30.05 in 10.0 mi SSE 8.1 mph - N/A   Clear
7:53 PM 63.0 °F 44.1 °F 50% 30.06 in 10.0 mi SE 8.1 mph - N/A   Clear
8:53 PM 54.0 °F 45.0 °F 72% 30.06 in 10.0 mi ESE 8.1 mph - N/A   Clear
9:53 PM 55.9 °F 44.1 °F 64% 30.07 in 10.0 mi SE 6.9 mph - N/A   Clear
10:53 PM 54.0 °F 44.1 °F 69% 30.07 in 10.0 mi SSE 5.8 mph - N/A   Clear
11:53 PM 50.0 °F 43.0 °F 77% 30.07 in 10.0 mi SE 8.1 mph - N/A   Clear